EN

Hourly Weather Bartym

Today, 18 January, Monday

Time Temperature Precipitation Wind Pressure Humidity
00:00 -24°C° 0 mm 3 mps 727 mmHg 97%
01:00 -24°C° 0 mm 3 mps 727 mmHg 98%
02:00 -24°C° 0 mm 2 mps 728 mmHg 98%
03:00 -25°C° 0 mm 2 mps 728 mmHg 98%
04:00 -25°C° 0 mm 2 mps 729 mmHg 99%
05:00 -23°C° 0 mm 1 mps 729 mmHg 99%
06:00 -23°C° 0 mm 1 mps 730 mmHg 99%
07:00 -24°C° 0 mm 1 mps 730 mmHg 99%
08:00 -24°C° 0 mm 1 mps 730 mmHg 99%
09:00 -23°C° 0 mm 1 mps 731 mmHg 99%
10:00 -22°C° 0 mm 0 mps 731 mmHg 98%
11:00 -21°C° 0 mm 0 mps 731 mmHg 95%
12:00 -19°C° 0 mm 0 mps 731 mmHg 93%
13:00 -18°C° 0 mm 0 mps 732 mmHg 90%
14:00 -19°C° 0 mm 0 mps 732 mmHg 93%
15:00 -20°C° 0 mm 0 mps 732 mmHg 96%
16:00 -21°C° 0 mm 0 mps 732 mmHg 98%
17:00 -22°C° 0 mm 0 mps 732 mmHg 98%
18:00 -22°C° 0 mm 0 mps 732 mmHg 98%
19:00 -23°C° 0 mm 0 mps 731 mmHg 97%
20:00 -23°C° 0 mm 0 mps 731 mmHg 96%
21:00 -23°C° 0 mm 1 mps 731 mmHg 95%
22:00 -22°C° 0 mm 1 mps 731 mmHg 94%
23:00 -22°C° 0 mm 1 mps 731 mmHg 93%

Tomorrow, 19 January, Tuesday

Time Temperature Precipitation Wind Pressure Humidity
00:00 -22°C° 0 mm 1 mps 731 mmHg 93%
01:00 -22°C° 0 mm 1 mps 731 mmHg 93%
02:00 -21°C° 0 mm 1 mps 731 mmHg 92%
03:00 -21°C° 0 mm 1 mps 731 mmHg 92%
04:00 -20°C° 0 mm 1 mps 731 mmHg 91%
05:00 -23°C° 0 mm 2 mps 730 mmHg 89%
06:00 -21°C° 0 mm 2 mps 730 mmHg 87%
07:00 -21°C° 0 mm 2 mps 730 mmHg 86%
08:00 -20°C° 0 mm 2 mps 730 mmHg 84%
09:00 -19°C° 0 mm 2 mps 730 mmHg 83%
10:00 -18°C° 0 mm 2 mps 730 mmHg 82%
11:00 -17°C° 0 mm 2 mps 729 mmHg 83%
12:00 -16°C° 0 mm 2 mps 729 mmHg 85%
13:00 -14°C° 0 mm 2 mps 729 mmHg 86%
14:00 -14°C° 0.3 mm 2 mps 729 mmHg 89%
15:00 -13°C° 0.3 mm 2 mps 728 mmHg 92%
16:00 -13°C° 0.3 mm 2 mps 728 mmHg 94%
17:00 -13°C° 0.3 mm 2 mps 728 mmHg 95%
18:00 -13°C° 0.3 mm 2 mps 728 mmHg 95%
19:00 -13°C° 0.3 mm 2 mps 728 mmHg 95%
20:00 -13°C° 0.3 mm 2 mps 727 mmHg 95%
21:00 -13°C° 0.3 mm 2 mps 727 mmHg 95%
22:00 -11°C° 0.3 mm 1 mps 727 mmHg 96%
23:00 -11°C° 0.4 mm 1 mps 727 mmHg 96%

Day after tomorrow, 20 January, Wednesday

Time Temperature Precipitation Wind Pressure Humidity
00:00 -11°C° 0.4 mm 1 mps 727 mmHg 96%
01:00 -12°C° 0.4 mm 1 mps 727 mmHg 96%
02:00 -12°C° 0.3 mm 1 mps 726 mmHg 96%
03:00 -12°C° 0.3 mm 1 mps 726 mmHg 96%
04:00 -12°C° 0.3 mm 1 mps 726 mmHg 96%
05:00 -12°C° 0.2 mm 1 mps 726 mmHg 96%
06:00 -12°C° 0.2 mm 1 mps 726 mmHg 96%
07:00 -12°C° 0.2 mm 1 mps 725 mmHg 96%
08:00 -12°C° 0.2 mm 1 mps 725 mmHg 96%
09:00 -12°C° 0.2 mm 1 mps 725 mmHg 95%
10:00 -14°C° 0.2 mm 2 mps 725 mmHg 94%
11:00 -14°C° 0.2 mm 2 mps 725 mmHg 94%
12:00 -15°C° 0.2 mm 3 mps 725 mmHg 93%
13:00 -15°C° 0.2 mm 3 mps 725 mmHg 93%
14:00 -16°C° 0.2 mm 3 mps 725 mmHg 93%
15:00 -16°C° 0.2 mm 3 mps 725 mmHg 93%
16:00 -18°C° 0.2 mm 4 mps 725 mmHg 93%
17:00 -19°C° 0.1 mm 4 mps 725 mmHg 93%
18:00 -20°C° 0.1 mm 4 mps 725 mmHg 93%
19:00 -22°C° 0.1 mm 4 mps 725 mmHg 94%
20:00 -22°C° 0.1 mm 4 mps 726 mmHg 94%
21:00 -23°C° 0.1 mm 4 mps 726 mmHg 94%
22:00 -25°C° 0.1 mm 5 mps 726 mmHg 94%
23:00 -25°C° 0.1 mm 5 mps 726 mmHg 94%

21 January, Thursday

Time Temperature Precipitation Wind Pressure Humidity
00:00 -25°C° 0.1 mm 5 mps 726 mmHg 94%
01:00 -25°C° 0.1 mm 5 mps 727 mmHg 94%
02:00 -25°C° 0.1 mm 5 mps 727 mmHg 94%
03:00 -25°C° 0.1 mm 5 mps 727 mmHg 94%
04:00 -26°C° 0.1 mm 5 mps 727 mmHg 95%
05:00 -25°C° 0 mm 4 mps 727 mmHg 95%
06:00 -25°C° 0 mm 4 mps 728 mmHg 95%
07:00 -25°C° 0 mm 4 mps 728 mmHg 95%
08:00 -25°C° 0 mm 4 mps 728 mmHg 95%
09:00 -25°C° 0 mm 4 mps 729 mmHg 95%
10:00 -25°C° 0 mm 4 mps 729 mmHg 94%
11:00 -25°C° 0 mm 4 mps 729 mmHg 94%
12:00 -24°C° 0 mm 4 mps 729 mmHg 94%
13:00 -24°C° 0 mm 4 mps 729 mmHg 94%
14:00 -24°C° 0 mm 4 mps 729 mmHg 94%
15:00 -24°C° 0 mm 4 mps 729 mmHg 94%
16:00 -24°C° 0 mm 4 mps 729 mmHg 94%
17:00 -24°C° 0 mm 4 mps 729 mmHg 94%
18:00 -24°C° 0 mm 4 mps 729 mmHg 94%
19:00 -24°C° 0 mm 4 mps 729 mmHg 94%
20:00 -24°C° 0 mm 4 mps 729 mmHg 94%
21:00 -24°C° 0 mm 4 mps 729 mmHg 94%
22:00 -24°C° 0 mm 4 mps 729 mmHg 94%
23:00 -24°C° 0 mm 4 mps 729 mmHg 94%

22 January, Friday

Time Temperature Precipitation Wind Pressure Humidity
00:00 -24°C° 0 mm 4 mps 728 mmHg 94%
01:00 -24°C° 0 mm 4 mps 728 mmHg 93%
02:00 -24°C° 0 mm 4 mps 728 mmHg 94%
03:00 -24°C° 0 mm 4 mps 727 mmHg 94%
04:00 -24°C° 0 mm 4 mps 726 mmHg 94%
05:00 -24°C° 0.2 mm 5 mps 726 mmHg 94%
06:00 -24°C° 0.2 mm 5 mps 725 mmHg 94%
07:00 -22°C° 0.2 mm 5 mps 724 mmHg 95%
08:00 -22°C° 0.6 mm 5 mps 724 mmHg 94%
09:00 -22°C° 0.6 mm 5 mps 723 mmHg 94%
10:00 -22°C° 0.6 mm 5 mps 723 mmHg 94%
11:00 -21°C° 0.1 mm 5 mps 723 mmHg 93%
12:00 -19°C° 0.1 mm 4 mps 723 mmHg 92%
13:00 -17°C° 0.1 mm 4 mps 724 mmHg 91%
14:00 -17°C° 0.1 mm 4 mps 724 mmHg 92%
15:00 -17°C° 0.1 mm 3 mps 724 mmHg 93%
16:00 -16°C° 0.1 mm 2 mps 724 mmHg 94%
17:00 -16°C° 0.1 mm 2 mps 725 mmHg 95%
18:00 -17°C° 0.1 mm 2 mps 725 mmHg 96%
19:00 -17°C° 0.1 mm 2 mps 726 mmHg 96%
20:00 -16°C° 0 mm 1 mps 726 mmHg 97%
21:00 -16°C° 0 mm 1 mps 727 mmHg 97%
22:00 -16°C° 0 mm 1 mps 727 mmHg 98%
23:00 -17°C° 0 mm 1 mps 727 mmHg 98%

23 January, Saturday

Time Temperature Precipitation Wind Pressure Humidity
00:00 -18°C° 0 mm 1 mps 728 mmHg 98%
01:00 -19°C° 0 mm 1 mps 728 mmHg 99%
02:00 -19°C° 0 mm 0 mps 728 mmHg 99%
03:00 -19°C° 0 mm 0 mps 729 mmHg 99%
04:00 -19°C° 0 mm 0 mps 729 mmHg 99%
05:00 -19°C° 0 mm 0 mps 730 mmHg 98%
06:00 -18°C° 0 mm 0 mps 730 mmHg 97%
07:00 -18°C° 0 mm 1 mps 731 mmHg 96%
08:00 -18°C° 0 mm 1 mps 731 mmHg 96%
09:00 -17°C° 0 mm 1 mps 732 mmHg 95%
10:00 -17°C° 0 mm 1 mps 732 mmHg 95%
11:00 -16°C° 0 mm 1 mps 732 mmHg 94%
12:00 -17°C° 0 mm 2 mps 732 mmHg 94%
13:00 -16°C° 0 mm 2 mps 733 mmHg 93%
14:00 -17°C° 0 mm 2 mps 733 mmHg 94%
15:00 -17°C° 0 mm 2 mps 733 mmHg 94%
16:00 -17°C° 0 mm 2 mps 733 mmHg 94%
17:00 -18°C° 0.1 mm 2 mps 733 mmHg 95%
18:00 -18°C° 0.1 mm 2 mps 734 mmHg 95%
19:00 -19°C° 0.1 mm 2 mps 734 mmHg 95%
20:00 -19°C° 0.2 mm 2 mps 734 mmHg 96%
21:00 -19°C° 0.2 mm 2 mps 734 mmHg 96%
22:00 -21°C° 0.2 mm 3 mps 734 mmHg 96%
23:00 -19°C° 0.2 mm 2 mps 734 mmHg 96%
Show more

We Need Your Consent

Meteoprog and our Service Providers may store and access personal data such as cookies, device identifiers or other similar technologies on your device and process such data to personalise content and ads, as well as provide social media features and to analyse the traffic.

  • Store and/or access information on your device

    Cookies, device identifiers or other information can be stored or accessed on your device for the purposes indicated above.

  • Personalised ads and content, ad and content measurement, audience insights, and products development

    Ads and content can be personalised based on a profile. More data can be added to better personalise ads and content. Ad and content performance can be measured. Insights about the audience who saw the ads and content can be derived. Such data can be used to develop or improve user’s experience, systems and software.

By clicking ‘I Agree’ you will allow the use of indicated cookies, device identifiers, web beacons or other similar technologies. Your settings can be changed in the browser on your device.

For certain purposes, legitimate interests may be relied on, rather than consent. You can read more about this in our Privacy and Cookie Policy.